FW8685 Weather Reports


time (UTC)temp
F
wind
direction
speed
knots
gust
knots
rain 1hr
in
rain 24hr
in
rain mn
in
humidity
%
barometer
mb
20260831024545 88 105 7.0 12.2 0.00 0.00 0.00 45 1009.4
20260831024024 88 100 7.8 12.2 0.00 0.00 0.00 45 1009.4
20260831023522 88 108 7.8 11.3 0.00 0.00 0.00 45 1009.3
20260831023041 88 100 7.0 12.2 0.00 0.00 0.00 45 1009.3
20260831022525 88 108 7.8 12.2 0.00 0.00 0.00 45 1009.3
20260831022027 88 101 7.0 11.3 0.00 0.00 0.00 45 1009.2
20260831021547 88 109 7.8 11.3 0.00 0.00 0.00 44 1009.1
20260831021025 89 109 7.8 11.3 0.00 0.00 0.00 44 1009.1
20260831020524 89 104 7.8 11.3 0.00 0.00 0.00 44 1008.8
20260831020045 89 126 6.1 10.4 0.00 0.00 0.00 44 1008.8
20260831015525 89 113 7.0 11.3 0.00 0.00 0.00 43 1008.7
20260831015021 90 103 6.1 11.3 0.00 0.00 0.00 42 1008.6
20260831014550 90 107 5.2 9.6 0.00 0.00 0.00 42 1008.5
20260831014024 91 93 5.2 9.6 0.00 0.00 0.00 41 1008.6
20260831013526 91 103 7.0 9.6 0.00 0.00 0.00 40 1008.3
20260831013046 91 102 7.0 10.4 0.00 0.00 0.00 40 1008.3
20260831012524 92 98 7.0 10.4 0.00 0.00 0.00 39 1008.4
20260831012025 92 112 6.1 10.4 0.00 0.00 0.00 38 1008.3
20260831011554 93 102 7.0 10.4 0.00 0.00 0.00 37 1008.4
20260831011024 93 113 6.1 15.6 0.00 0.00 0.00 37 1008.2
20260831010525 94 108 7.0 15.6 0.00 0.00 0.00 37 1008.2
20260831010058 94 128 7.0 15.6 0.00 0.00 0.00 36 1008.2
20260831005525 95 131 6.1 11.3 0.00 0.00 0.00 36 1008.2
20260831005028 95 98 7.8 12.2 0.00 0.00 0.00 35 1008.1
20260831004548 96 123 7.8 15.6 0.00 0.00 0.00 35 1008.1
20260831004024 96 107 8.7 15.6 0.00 0.00 0.00 35 1008.1
20260831003527 97 118 7.8 13.9 0.00 0.00 0.00 35 1008.1
20260831003045 98 112 7.0 13.9 0.00 0.00 0.00 34 1008.1
20260831002524 98 99 7.0 13.9 0.00 0.00 0.00 34 1008.1
20260831002024 98 123 8.7 17.4 0.00 0.00 0.00 34 1008.1
20260831001544 99 132 10.4 18.2 0.00 0.00 0.00 33 1008.1
20260831001025 99 127 12.2 18.2 0.00 0.00 0.00 33 1008.2
20260831000525 99 129 11.3 18.2 0.00 0.00 0.00 33 1008.1
20260831000045 100 120 12.2 22.6 0.00 0.00 0.00 32 1008.1
20260830235524 100 113 12.2 22.6 0.00 0.00 0.00 32 1008.1
20260830235024 100 106 9.6 20.0 0.00 0.00 0.00 32 1008.0
20260830234550 100 107 12.2 20.9 0.00 0.00 0.00 32 1008.1
20260830234026 101 121 12.2 23.5 0.00 0.00 0.00 32 1008.0
20260830233525 101 116 13.0 23.5 0.00 0.00 0.00 31 1007.9
20260830233044 101 98 10.4 19.1 0.00 0.00 0.00 31 1007.8
20260830232526 101 100 8.7 18.2 0.00 0.00 0.00 32 1007.9
20260830232025 102 150 11.3 22.6 0.00 0.00 0.00 31 1008.0
20260830231543 102 125 13.0 22.6 0.00 0.00 0.00 32 1007.9
20260830231024 102 114 10.4 22.6 0.00 0.00 0.00 31 1007.9
20260830230524 102 123 13.9 22.6 0.00 0.00 0.00 31 1007.9
20260830230047 103 134 10.4 18.2 0.00 0.00 0.00 31 1007.7
20260830225525 103 113 10.4 20.9 0.00 0.00 0.00 31 1007.7
20260830225024 103 134 12.2 20.9 0.00 0.00 0.00 31 1007.6
20260830224548 103 126 12.2 20.0 0.00 0.00 0.00 31 1007.6
20260830224025 103 131 12.2 25.2 0.00 0.00 0.00 31 1007.6
20260830223524 103 119 13.9 25.2 0.00 0.00 0.00 30 1007.7
20260830223045 103 132 12.2 23.5 0.00 0.00 0.00 30 1007.7
20260830222526 104 145 15.6 23.5 0.00 0.00 0.00 30 1007.6
20260830222024 104 114 11.3 20.9 0.00 0.00 0.00 30 1007.6
20260830221541 104 109 11.3 22.6 0.00 0.00 0.00 31 1007.6
20260830221028 104 123 11.3 22.6 0.00 0.00 0.00 30 1007.7
20260830220524 104 109 12.2 18.2 0.00 0.00 0.00 29 1007.7
20260830220049 105 118 12.2 20.9 0.00 0.00 0.00 29 1007.7
20260830215524 105 121 13.0 20.9 0.00 0.00 0.00 29 1007.7
20260830215025 105 138 9.6 20.9 0.00 0.00 0.00 29 1007.8
20260830214545 104 123 13.9 20.9 0.00 0.00 0.00 30 1007.7
20260830214025 105 122 11.3 25.2 0.00 0.00 0.00 30 1007.6
20260830213528 105 134 14.8 25.2 0.00 0.00 0.00 30 1007.7
20260830213101 105 118 13.9 25.2 0.00 0.00 0.00 30 1007.6
20260830212525 105 113 17.4 26.1 0.00 0.00 0.00 30 1007.6
20260830212024 104 74 16.5 26.1 0.00 0.00 0.00 31 1007.7
20260830211550 104 136 14.8 25.2 0.00 0.00 0.00 31 1007.8
20260830211025 105 113 16.5 25.2 0.00 0.00 0.00 30 1007.8
20260830210523 105 117 13.9 25.2 0.00 0.00 0.00 30 1008.0
20260830210046 105 124 15.6 25.2 0.00 0.00 0.00 30 1008.0
20260830205529 106 137 13.0 21.7 0.00 0.00 0.00 30 1008.1
20260830205025 106 121 10.4 26.9 0.00 0.00 0.00 30 1008.1
20260830204543 105 105 14.8 26.9 0.00 0.00 0.00 30 1008.2
20260830204025 105 134 15.6 25.2 0.00 0.00 0.00 30 1008.2
20260830203524 105 125 13.9 28.7 0.00 0.00 0.00 30 1008.3
20260830203050 105 126 14.8 28.7 0.00 0.00 0.00 31 1008.4
20260830202526 105 104 11.3 23.5 0.00 0.00 0.00 31 1008.5
20260830202025 105 133 12.2 23.5 0.00 0.00 0.00 30 1008.4
20260830201546 105 119 12.2 23.5 0.00 0.00 0.00 30 1008.5
20260830201025 104 125 15.6 23.5 0.00 0.00 0.00 30 1008.6
20260830200524 105 140 14.8 21.7 0.00 0.00 0.00 30 1008.7
20260830200045 105 115 13.0 22.6 0.00 0.00 0.00 31 1008.6
20260830195524 104 130 11.3 26.9 0.00 0.00 0.00 31 1008.7
20260830195025 105 165 14.8 26.9 0.00 0.00 0.00 30 1008.8
20260830194544 105 117 13.0 26.1 0.00 0.00 0.00 31 1008.9
20260830194024 105 139 13.9 26.1 0.00 0.00 0.00 31 1008.9
20260830193525 104 105 13.9 26.1 0.00 0.00 0.00 31 1008.9
20260830193047 104 137 13.0 22.6 0.00 0.00 0.00 32 1009.1
20260830192524 104 134 11.3 24.3 0.00 0.00 0.00 31 1009.1
20260830192024 104 148 13.9 25.2 0.00 0.00 0.00 32 1009.2
20260830191546 104 111 15.6 25.2 0.00 0.00 0.00 32 1009.1
20260830191024 103 139 13.9 25.2 0.00 0.00 0.00 33 1009.1
20260830190524 103 137 13.0 29.5 0.00 0.00 0.00 33 1009.2
20260830190044 103 107 16.5 29.5 0.00 0.00 0.00 34 1009.1
20260830185525 103 139 13.0 29.5 0.00 0.00 0.00 34 1009.3
20260830185025 103 113 13.0 26.9 0.00 0.00 0.00 34 1009.3
20260830184550 103 138 14.8 28.7 0.00 0.00 0.00 33 1009.3
20260830184024 103 157 11.3 28.7 0.00 0.00 0.00 34 1009.4
20260830183526 103 132 11.3 23.5 0.00 0.00 0.00 35 1009.4
20260830183047 102 122 13.9 23.5 0.00 0.00 0.00 35 1009.4
20260830182532 102 146 13.0 26.1 0.00 0.00 0.00 35 1009.5
20260830182026 102 136 13.0 26.1 0.00 0.00 0.00 35 1009.4
20260830181546 101 148 17.4 26.1 0.00 0.00 0.00 36 1009.4
20260830181027 102 135 13.0 25.2 0.00 0.00 0.00 36 1009.6
20260830180525 101 127 17.4 26.9 0.00 0.00 0.00 36 1009.7
20260830180044 101 124 14.8 26.9 0.00 0.00 0.00 36 1009.7
20260830175524 101 142 14.8 24.3 0.00 0.00 0.00 37 1010.0
20260830175025 100 135 13.9 23.5 0.00 0.00 0.00 37 1010.0
20260830174547 100 128 11.3 23.5 0.00 0.00 0.00 38 1010.1
20260830174025 100 136 14.8 23.5 0.00 0.00 0.00 38 1010.1
20260830173527 100 134 13.9 23.5 0.00 0.00 0.00 38 1010.3
20260830173045 99 130 13.0 29.5 0.00 0.00 0.00 39 1010.4
20260830172524 98 147 14.8 29.5 0.00 0.00 0.00 39 1010.5
20260830172026 98 139 19.1 29.5 0.00 0.00 0.00 39 1010.6
20260830171546 98 132 13.0 24.3 0.00 0.00 0.00 39 1010.6
20260830171025 98 139 12.2 24.3 0.00 0.00 0.00 40 1010.6
20260830170524 97 131 15.6 24.3 0.00 0.00 0.00 40 1010.6
20260830170047 97 110 15.6 25.2 0.00 0.00 0.00 40 1010.6
20260830165525 97 126 11.3 25.2 0.00 0.00 0.00 41 1010.7
20260830165024 97 120 12.2 25.2 0.00 0.00 0.00 41 1010.9
20260830164549 96 142 12.2 24.3 0.00 0.00 0.00 42 1010.9
20260830164027 96 144 13.0 23.5 0.00 0.00 0.00 41 1011.0
20260830163526 96 115 9.6 23.5 0.00 0.00 0.00 42 1011.0
20260830163045 95 125 13.9 25.2 0.00 0.00 0.00 42 1010.8
20260830162523 94 141 11.3 25.2 0.00 0.00 0.00 43 1011.0
20260830162025 94 125 13.9 23.5 0.00 0.00 0.00 43 1011.0
20260830161557 94 134 13.0 23.5 0.00 0.00 0.00 43 1011.0
20260830161028 94 130 11.3 25.2 0.00 0.00 0.00 44 1011.0
20260830160526 93 149 15.6 25.2 0.00 0.00 0.00 44 1011.0
20260830160049 93 134 14.8 24.3 0.00 0.00 0.00 44 1011.0
20260830155525 93 127 15.6 23.5 0.00 0.00 0.00 43 1011.1
20260830155024 93 148 9.6 26.1 0.00 0.00 0.00 44 1010.9
20260830154547 92 129 11.3 26.1 0.00 0.00 0.00 45 1011.0
20260830154024 92 134 14.8 23.5 0.00 0.00 0.00 45 1011.0
20260830153524 92 144 13.0 23.5 0.00 0.00 0.00 45 1011.0
20260830153047 91 150 12.2 22.6 0.00 0.00 0.00 45 1010.9
20260830152525 91 152 9.6 23.5 0.00 0.00 0.00 46 1011.0
20260830152022 90 122 10.4 23.5 0.00 0.00 0.00 47 1011.0
20260830151549 90 150 14.8 22.6 0.00 0.00 0.00 47 1011.0
20260830151024 90 132 11.3 21.7 0.00 0.00 0.00 48 1011.0
20260830150527 89 128 9.6 21.7 0.00 0.00 0.00 48 1011.1
20260830150111 89 115 13.0 20.9 0.00 0.00 0.00 48 1011.1
20260830145524 88 100 13.0 20.9 0.00 0.00 0.00 49 1011.0
20260830145024 88 136 12.2 20.0 0.00 0.00 0.00 49 1011.0
20260830144545 87 134 13.0 20.0 0.00 0.00 0.00 50 1011.1
20260830144024 87 126 12.2 24.3 0.00 0.00 0.00 51 1011.1
20260830143525 86 117 10.4 24.3 0.00 0.00 0.00 52 1011.1
20260830143045 85 155 11.3 24.3 0.00 0.00 0.00 53 1011.1
20260830142524 85 152 10.4 18.2 0.00 0.00 0.00 54 1011.1
20260830142024 84 133 9.6 18.2 0.00 0.00 0.00 55 1011.1
20260830141546 84 126 10.4 18.2 0.00 0.00 0.00 55 1011.1
20260830141026 83 127 10.4 18.2 0.00 0.00 0.00 56 1011.1
20260830140525 82 124 8.7 16.5 0.00 0.00 0.00 57 1011.2
20260830140045 82 122 7.8 14.8 0.00 0.00 0.00 58 1011.2
20260830135527 81 126 8.7 14.8 0.00 0.00 0.00 59 1011.3
20260830135026 80 130 7.8 13.0 0.00 0.00 0.00 60 1011.3
20260830134547 80 137 7.8 13.9 0.00 0.00 0.00 61 1011.3
20260830134025 79 123 7.8 13.9 0.00 0.00 0.00 62 1011.3
20260830133524 78 123 7.8 12.2 0.00 0.00 0.00 63 1011.3
20260830133047 77 127 7.8 13.0 0.00 0.00 0.00 64 1011.2
20260830132526 77 105 7.0 13.0 0.00 0.00 0.00 65 1011.3
20260830132024 76 107 7.0 13.0 0.00 0.00 0.00 66 1011.4
20260830131546 76 110 7.0 13.0 0.00 0.00 0.00 66 1011.3
20260830131024 76 145 7.8 13.0 0.00 0.00 0.00 66 1011.3
20260830130528 75 113 7.8 11.3 0.00 0.00 0.00 66 1011.3
20260830130043 75 121 7.0 10.4 0.00 0.00 0.00 67 1011.3
20260830125525 75 107 7.8 11.3 0.00 0.00 0.00 67 1011.2
20260830125025 74 104 7.8 11.3 0.00 0.00 0.00 68 1011.3
20260830124546 74 90 7.0 12.2 0.00 0.00 0.00 68 1011.3
20260830124028 74 113 7.8 12.2 0.00 0.00 0.00 68 1011.3
20260830123524 74 110 7.8 12.2 0.00 0.00 0.00 68 1011.2
20260830123046 74 102 7.8 12.2 0.00 0.00 0.00 68 1011.2
20260830122525 73 105 7.8 12.2 0.00 0.00 0.00 68 1011.3
20260830122026 73 95 7.0 10.4 0.00 0.00 0.00 68 1011.2
20260830121554 74 113 6.1 10.4 0.00 0.00 0.00 68 1011.1
20260830121025 73 112 7.0 9.6 0.00 0.00 0.00 67 1011.2
20260830120525 74 112 6.1 9.6 0.00 0.00 0.00 67 1011.0
20260830120048 74 109 7.0 10.4 0.00 0.00 0.00 67 1011.2
20260830115525 74 108 6.1 10.4 0.00 0.00 0.00 67 1011.2
20260830115023 74 120 7.0 9.6 0.00 0.00 0.00 67 1011.2
20260830114603 74 111 6.1 9.6 0.00 0.00 0.00 67 1011.0
20260830114024 74 122 7.0 9.6 0.00 0.00 0.00 67 1011.1
20260830113524 74 105 5.2 10.4 0.00 0.00 0.00 67 1011.0
20260830113042 74 117 6.1 10.4 0.00 0.00 0.00 66 1010.9
20260830112523 74 117 6.1 10.4 0.00 0.00 0.00 66 1010.9
20260830112024 74 123 6.1 10.4 0.00 0.00 0.00 66 1010.8
20260830111547 74 105 7.0 10.4 0.00 0.00 0.00 66 1010.9
20260830111024 74 117 6.1 10.4 0.00 0.00 0.00 66 1010.9
20260830110524 74 96 7.0 8.7 0.00 0.00 0.00 66 1010.8
20260830110048 74 114 6.1 10.4 0.00 0.00 0.00 66 1011.0
20260830105527 74 109 5.2 10.4 0.00 0.00 0.00 66 1011.1
20260830105027 74 122 6.1 10.4 0.00 0.00 0.00 66 1011.0
20260830104545 74 101 6.1 11.3 0.00 0.00 0.00 66 1010.8
20260830104024 74 134 6.1 11.3 0.00 0.00 0.00 66 1010.9
20260830103527 74 117 7.0 11.3 0.00 0.00 0.00 66 1011.0
20260830103042 74 116 6.1 9.6 0.00 0.00 0.00 66 1011.0
20260830102525 74 122 6.1 9.6 0.00 0.00 0.00 67 1011.0
20260830102023 74 115 5.2 9.6 0.00 0.00 0.00 67 1011.0
20260830101550 74 108 5.2 7.8 0.00 0.00 0.00 67 1010.9
20260830101026 74 120 4.3 8.7 0.00 0.00 0.00 67 1011.0
20260830100525 74 104 5.2 11.3 0.00 0.00 0.00 67 1011.0
20260830100047 74 107 7.0 11.3 0.00 0.00 0.00 67 1010.9
20260830095525 74 130 6.1 8.7 0.00 0.00 0.00 67 1010.8
20260830095024 74 114 6.1 8.7 0.00 0.00 0.00 67 1010.8
20260830094543 74 110 5.2 9.6 0.00 0.00 0.00 67 1010.9
20260830094024 74 114 6.1 9.6 0.00 0.00 0.00 67 1010.9
20260830093522 74 105 5.2 7.8 0.00 0.00 0.00 66 1010.7
20260830093049 74 111 5.2 7.0 0.00 0.00 0.00 66 1010.7
20260830092525 75 102 3.5 7.0 0.00 0.00 0.00 66 1010.8
20260830092024 75 109 4.3 7.0 0.00 0.00 0.00 65 1010.8
20260830091547 75 107 4.3 7.0 0.00 0.00 0.00 64 1010.8
20260830091025 75 110 3.5 7.0 0.00 0.00 0.00 64 1010.8
20260830090527 76 105 3.5 7.0 0.00 0.00 0.00 64 1010.9
20260830090059 76 111 4.3 7.0 0.00 0.00 0.00 63 1010.8
20260830085525 76 119 4.3 7.0 0.00 0.00 0.00 63 1010.6
20260830085025 76 115 4.3 7.0 0.00 0.00 0.00 62 1010.6
20260830084555 77 105 3.5 6.1 0.00 0.00 0.00 62 1010.7
20260830084025 77 103 3.5 7.0 0.00 0.00 0.00 62 1010.8
20260830083529 77 115 3.5 8.7 0.00 0.00 0.00 62 1010.6
20260830083049 77 115 4.3 8.7 0.00 0.00 0.00 61 1010.4
20260830082523 77 124 6.1 8.7 0.00 0.00 0.00 61 1010.5
20260830082024 77 119 5.2 7.8 0.00 0.00 0.00 61 1010.7
20260830081553 78 119 5.2 8.7 0.00 0.00 0.00 61 1010.5
20260830081025 78 121 4.3 8.7 0.00 0.00 0.00 60 1010.4
20260830080526 78 115 4.3 7.8 0.00 0.00 0.00 60 1010.4
20260830080050 78 107 5.2 7.8 0.00 0.00 0.00 60 1010.5
20260830075525 78 127 5.2 7.8 0.00 0.00 0.00 59 1010.4
20260830075024 79 117 5.2 9.6 0.00 0.00 0.00 59 1010.6
20260830074604 79 98 5.2 9.6 0.00 0.00 0.00 59 1010.3
20260830074027 79 117 4.3 9.6 0.00 0.00 0.00 58 1010.4
20260830073524 79 119 4.3 9.6 0.00 0.00 0.00 58 1010.4
20260830073055 80 118 5.2 8.7 0.00 0.00 0.00 57 1010.3
20260830072526 80 120 4.3 8.7 0.00 0.00 0.00 57 1010.4
20260830072025 80 115 6.1 9.6 0.00 0.00 0.00 57 1010.4
20260830071553 80 137 6.1 10.4 0.00 0.00 0.00 56 1010.4
20260830071025 80 107 6.1 10.4 0.00 0.00 0.00 56 1010.5
20260830070525 81 121 6.1 10.4 0.00 0.00 0.00 56 1010.5
20260830070049 81 120 6.1 11.3 0.00 0.00 0.00 55 1010.5
20260830065525 81 111 6.1 11.3 0.00 0.00 0.00 55 1010.6
20260830065024 81 127 6.1 10.4 0.00 0.00 0.00 54 1010.6
20260830064546 82 132 7.0 12.2 0.00 0.00 0.00 54 1010.6
20260830064028 82 142 6.1 12.2 0.00 0.00 0.00 54 1010.6
20260830063525 82 107 7.8 12.2 0.00 0.00 0.00 54 1010.5
20260830063053 82 109 7.8 12.2 0.00 0.00 0.00 54 1010.4
20260830062524 82 111 7.8 12.2 0.00 0.00 0.00 53 1010.6
20260830062026 82 125 8.7 13.9 0.00 0.00 0.00 53 1010.6
20260830061542 82 125 7.8 14.8 0.00 0.00 0.00 53 1010.5
20260830061025 82 117 8.7 14.8 0.00 0.00 0.00 53 1010.5
20260830060524 82 102 7.8 13.9 0.00 0.00 0.00 53 1010.5
20260830060047 82 121 7.8 13.0 0.00 0.00 0.00 53 1010.6
20260830055521 82 102 7.0 13.0 0.00 0.00 0.00 53 1010.6
20260830055025 82 107 8.7 13.0 0.00 0.00 0.00 53 1010.6
20260830054545 82 122 7.8 13.0 0.00 0.00 0.00 53 1010.6
20260830054024 83 103 7.8 12.2 0.00 0.00 0.00 53 1010.6
20260830053524 83 109 7.8 11.3 0.00 0.00 0.00 53 1010.6
20260830053043 83 115 7.8 14.8 0.00 0.00 0.00 53 1010.6
20260830052525 83 116 7.8 14.8 0.00 0.00 0.00 53 1010.7
20260830052026 83 119 7.8 13.9 0.00 0.00 0.00 53 1010.6
20260830051548 83 107 8.7 13.9 0.00 0.00 0.00 53 1010.6
20260830051024 83 104 8.7 13.0 0.00 0.00 0.00 53 1010.5
20260830050526 83 105 7.8 12.2 0.00 0.00 0.00 53 1010.5
20260830050051 83 101 7.8 13.9 0.00 0.00 0.00 53 1010.5
20260830045524 83 123 7.8 13.9 0.00 0.00 0.00 53 1010.5
20260830045023 83 84 7.8 13.9 0.00 0.00 0.00 53 1010.4
20260830044603 83 108 7.0 13.9 0.00 0.00 0.00 53 1010.4
20260830044025 83 105 7.8 11.3 0.00 0.00 0.00 53 1010.4
20260830043527 83 115 7.0 11.3 0.00 0.00 0.00 52 1010.6
20260830043049 83 111 7.8 12.2 0.00 0.00 0.00 52 1010.6
20260830042524 83 112 8.7 13.0 0.00 0.00 0.00 52 1010.6
20260830042029 83 107 8.7 13.0 0.00 0.00 0.00 52 1010.6
20260830041607 84 108 8.7 13.0 0.00 0.00 0.00 52 1010.6
20260830041026 84 115 8.7 13.0 0.00 0.00 0.00 51 1010.7
20260830040528 84 109 8.7 13.0 0.00 0.00 0.00 51 1010.6
20260830040100 84 109 8.7 13.9 0.00 0.00 0.00 51 1010.8
20260830035524 84 104 9.6 14.8 0.00 0.00 0.00 50 1010.7
20260830035024 84 128 10.4 16.5 0.00 0.00 0.00 50 1010.6
20260830034557 85 109 9.6 16.5 0.00 0.00 0.00 50 1010.6
20260830034025 85 96 10.4 16.5 0.00 0.00 0.00 49 1010.7
20260830033525 85 101 9.6 15.6 0.00 0.00 0.00 49 1010.6
20260830033046 85 101 9.6 14.8 0.00 0.00 0.00 49 1010.6
20260830032523 85 100 9.6 14.8 0.00 0.00 0.00 48 1010.5
20260830032024 85 110 10.4 14.8 0.00 0.00 0.00 48 1010.5
20260830031545 85 107 8.7 13.0 0.00 0.00 0.00 48 1010.4
20260830031025 85 104 9.6 13.0 0.00 0.00 0.00 48 1010.4
20260830030523 85 102 8.7 13.9 0.00 0.00 0.00 47 1010.5
20260830030103 85 101 8.7 13.9 0.00 0.00 0.00 47 1010.5
20260830025524 86 107 7.8 12.2 0.00 0.00 0.00 46 1010.4
20260830025024 86 104 7.8 11.3 0.00 0.00 0.00 46 1010.5